GW1174 Weather Reports


Display with metric or nautical units.
time (UTC)temp
F
wind
direction
speed
MPH
gust
MPH
rain 1hr
in
rain 24hr
in
rain mn
in
humidity
%
barometer
mb
20260831101517 41 7 10.0 12.0 0.00 0.20 0.20 21 1050.2
20260831101018 69 248 6.0 19.0 0.00 0.22 0.22 70 1015.9
20260831100537 41 8 10.0 12.0 0.00 0.20 0.20 21 1050.4
20260831100018 69 270 8.0 16.0 0.00 0.22 0.22 72 1015.8
20260831095517 42 9 10.0 12.0 0.00 0.20 0.20 22 1050.6
20260831095038 68 270 9.0 17.0 0.00 0.22 0.22 72 1016.0
20260831094537 43 11 10.0 12.0 0.00 0.20 0.20 22 1050.9
20260831094017 68 225 9.0 19.0 0.00 0.22 0.22 75 1016.0
20260831093517 44 12 10.0 12.0 0.00 0.20 0.20 22 1051.2
20260831093037 67 270 6.0 14.0 0.00 0.22 0.22 78 1015.9
20260831092517 45 14 10.0 12.0 0.00 0.20 0.20 22 1051.5
20260831092018 67 270 7.0 15.0 0.00 0.22 0.22 76 1015.9
20260831091517 46 15 10.0 12.0 0.00 0.20 0.20 23 1051.8
20260831091036 68 293 6.0 12.0 0.00 0.22 0.22 79 1016.0
20260831090517 46 17 10.0 11.0 0.00 0.20 0.20 23 1052.1
20260831090038 67 248 8.0 15.0 0.00 0.22 0.22 82 1015.9
20260831085517 47 18 9.0 11.0 0.00 0.20 0.20 23 1052.4
20260831085017 66 270 7.0 13.0 0.00 0.22 0.22 86 1015.7
20260831084517 48 20 9.0 11.0 0.00 0.20 0.20 23 1052.8
20260831084038 65 270 11.0 18.0 0.00 0.22 0.22 88 1015.8
20260831083517 49 22 9.0 11.0 0.00 0.20 0.20 24 1053.1
20260831083038 64 248 8.0 17.0 0.00 0.22 0.22 91 1015.7
20260831082517 50 24 9.0 11.0 0.00 0.20 0.20 24 1053.5
20260831082037 64 270 6.0 16.0 0.00 0.22 0.22 92 1015.6
20260831081517 51 26 9.0 11.0 0.00 0.20 0.20 24 1053.9
20260831081017 63 248 7.0 13.0 0.00 0.22 0.22 93 1015.5
20260831080517 52 28 9.0 11.0 0.00 0.20 0.20 25 1054.3
20260831080018 62 248 6.0 13.0 0.00 0.22 0.22 94 1015.4
20260831075517 53 30 9.0 11.0 0.00 0.20 0.20 25 1054.7
20260831075017 61 248 7.0 16.0 0.00 0.22 0.22 94 1015.3
20260831074517 53 32 9.0 11.0 0.00 0.20 0.20 25 1055.2
20260831074018 61 270 8.0 17.0 0.00 0.22 0.22 94 1015.4
20260831073517 54 35 9.0 11.0 0.00 0.20 0.20 26 1055.6
20260831073018 61 270 6.0 14.0 0.00 0.22 0.22 94 1015.2
20260831072516 55 37 9.0 11.0 0.00 0.20 0.20 26 1056.1
20260831072017 61 248 9.0 15.0 0.00 0.22 0.22 94 1015.1
20260831071517 56 39 9.0 11.0 0.00 0.20 0.20 27 1056.6
20260831071017 61 225 7.0 14.0 0.00 0.22 0.22 94 1015.0
20260831070517 57 42 9.0 11.0 0.00 0.20 0.20 27 1057.1
20260831070017 61 225 6.0 12.0 0.00 0.22 0.22 94 1014.9
20260831065517 58 44 9.0 11.0 0.00 0.20 0.20 27 1057.6
20260831065017 61 225 6.0 11.0 0.00 0.22 0.22 94 1015.0
20260831064517 58 47 9.0 10.0 0.00 0.20 0.20 28 1058.1
20260831064017 61 225 5.0 9.0 0.00 0.22 0.22 94 1014.9
20260831063517 59 50 9.0 10.0 0.00 0.20 0.20 28 1058.6
20260831063017 60 203 4.0 9.0 0.00 0.22 0.22 94 1014.8
20260831062517 60 52 9.0 10.0 0.00 0.20 0.20 29 1059.2
20260831062037 60 203 5.0 8.0 0.00 0.22 0.22 94 1014.8
20260831061517 61 55 8.0 10.0 0.00 0.20 0.20 29 1059.7
20260831061017 60 180 3.0 5.0 0.00 0.22 0.22 94 1014.8
20260831060517 61 58 8.0 10.0 0.00 0.20 0.20 30 1060.3
20260831060017 59 158 3.0 5.0 0.00 0.22 0.22 94 1014.6
20260831055517 62 61 8.0 10.0 0.00 0.20 0.20 30 1060.9
20260831055017 59 158 4.0 7.0 0.00 0.22 0.22 94 1014.5
20260831054517 63 64 8.0 10.0 0.00 0.20 0.20 31 1061.4
20260831054017 59 113 2.0 3.0 0.00 0.22 0.22 94 1014.4
20260831053517 63 67 8.0 10.0 0.00 0.20 0.20 31 1062.0
20260831053037 59 158 2.0 4.0 0.01 0.22 0.22 94 1014.6
20260831052517 64 70 8.0 10.0 0.00 0.20 0.20 32 1062.7
20260831052037 59 225 2.0 3.0 0.01 0.22 0.22 94 1014.7
20260831051517 65 73 8.0 10.0 0.00 0.20 0.20 32 1063.3
20260831051017 59 158 1.0 3.0 0.01 0.22 0.22 94 1014.6
20260831050517 65 76 8.0 9.0 0.00 0.20 0.20 33 1063.9
20260831050017 59 158 1.0 4.0 0.02 0.22 0.22 94 1014.4
20260831045517 66 80 8.0 9.0 0.00 0.20 0.20 33 1064.5
20260831045017 59 158 1.0 2.0 0.06 0.22 0.22 94 1014.4
20260831044517 66 83 8.0 9.0 0.00 0.20 0.20 34 1065.2
20260831044017 59 113 1.0 4.0 0.06 0.22 0.22 94 1014.3
20260831043537 67 86 8.0 9.0 0.00 0.20 0.20 34 1065.9
20260831043017 59 113 1.0 2.0 0.21 0.21 0.21 93 1014.3
20260831042517 67 90 8.0 9.0 0.00 0.20 0.20 35 1066.5
20260831042017 59 158 2.0 6.0 0.21 0.21 0.21 93 1014.4
20260831041537 68 93 7.0 9.0 0.00 0.20 0.20 36 1067.2
20260831041017 59 135 2.0 5.0 0.21 0.21 0.21 93 1014.6
20260831040517 68 97 7.0 9.0 0.00 0.20 0.20 36 1067.9
20260831040017 59 113 3.0 6.0 0.20 0.20 0.20 93 1014.5
20260831035517 68 100 7.0 9.0 0.00 0.20 0.20 37 1068.6
20260831035017 58 158 2.0 5.0 0.17 0.17 0.17 93 1014.7
20260831034517 69 104 7.0 9.0 0.00 0.20 0.20 37 1069.3
20260831034037 58 203 6.0 10.0 0.16 0.16 0.16 93 1015.1
20260831033517 69 107 7.0 8.0 0.00 0.20 0.20 38 1070.0
20260831033017 56 180 6.0 16.0 0.00 0.00 0.00 92 1013.7
20260831032517 69 111 7.0 8.0 0.00 0.20 0.20 38 1070.7
20260831032016 56 0.0 0.0 0.00 0.00 0.00 92 1012.9
20260831031517 70 114 7.0 8.0 0.00 0.20 0.20 39 1071.4
20260831031016 56 0.0 0.0 0.00 0.00 0.00 92 1012.9
20260831030517 70 118 7.0 8.0 0.00 0.20 0.20 40 1072.1
20260831030017 56 0.0 0.0 0.00 0.00 0.00 92 1012.8
20260831025517 70 122 7.0 8.0 0.00 0.20 0.20 40 1072.9
20260831025017 55 0.0 0.0 0.00 0.00 0.00 92 1013.1
20260831024517 70 126 7.0 8.0 0.00 0.20 0.20 41 1073.6
20260831024037 55 0.0 0.0 0.00 0.00 0.00 92 1013.4
20260831023517 70 129 6.0 8.0 0.00 0.20 0.20 42 1074.4
20260831023016 55 0.0 0.0 0.00 0.00 0.00 92 1013.4
20260831022617 70 133 6.0 8.0 0.00 0.20 0.20 42 1075.1
20260831022017 55 0.0 0.0 0.00 0.00 0.00 92 1013.7
20260831021517 70 137 6.0 7.0 0.00 0.20 0.20 43 1075.9
20260831021037 55 0.0 0.0 0.00 0.00 0.00 92 1013.5
20260831020516 70 141 6.0 7.0 0.00 0.20 0.20 43 1076.6
20260831020017 55 0.0 0.0 0.00 0.00 0.00 92 1013.5
20260831015517 70 145 6.0 7.0 0.00 0.20 0.20 44 1077.4
20260831015016 54 0.0 0.0 0.00 0.00 0.00 91 1013.7
20260831014517 70 148 6.0 7.0 0.01 0.20 0.20 45 1078.1
20260831014037 54 0.0 0.0 0.00 0.00 0.00 91 1013.7
20260831013517 70 152 6.0 7.0 0.02 0.20 0.20 45 1078.9
20260831013016 54 0.0 0.0 0.00 0.00 0.00 91 1014.1
20260831012517 69 156 6.0 7.0 0.03 0.20 0.20 46 1079.7
20260831012036 55 0.0 0.0 0.00 0.00 0.00 91 1014.1
20260831011517 69 160 6.0 7.0 0.05 0.20 0.20 47 1080.4
20260831011016 55 0.0 0.0 0.00 0.00 0.00 91 1014.0
20260831010517 69 164 5.0 7.0 0.06 0.20 0.20 47 1081.2
20260831010016 55 0.0 0.0 0.00 0.00 0.00 91 1014.4
20260831005517 69 168 5.0 6.0 0.07 0.20 0.20 48 1082.0
20260831005016 55 0.0 0.0 0.00 0.00 0.00 91 1014.4
20260831004517 68 172 5.0 6.0 0.07 0.20 0.19 49 1082.8
20260831004016 55 0.0 0.0 0.00 0.00 0.00 90 1014.6
20260831003517 68 176 5.0 6.0 0.07 0.20 0.18 49 1083.5
20260831003016 55 0.0 0.0 0.00 0.00 0.00 90 1014.5
20260831002537 67 180 5.0 6.0 0.07 0.20 0.17 50 1084.3
20260831002016 56 0.0 0.0 0.00 0.00 0.00 90 1014.7
20260831001517 67 184 5.0 6.0 0.06 0.20 0.15 51 1085.1
20260831001016 56 0.0 0.0 0.00 0.00 0.00 90 1014.8
20260831000517 66 187 5.0 6.0 0.06 0.20 0.14 51 1085.9
20260831000036 56 0.0 0.0 0.00 0.00 0.00 90 1015.0
20260830235537 66 191 5.0 6.0 0.06 0.20 0.13 52 1086.6
20260830235036 56 0.0 0.0 0.00 0.00 0.00 90 1014.9
20260830234517 65 195 5.0 6.0 0.07 0.20 0.12 53 1087.4
20260830234016 56 0.0 0.0 0.00 0.00 0.00 89 1014.8
20260830233537 65 199 4.0 5.0 0.07 0.20 0.11 53 1088.2
20260830233016 57 0.0 0.0 0.00 0.00 0.00 89 1014.8
20260830232517 64 203 4.0 5.0 0.07 0.20 0.10 54 1089.0
20260830232016 57 0.0 0.0 0.00 0.00 0.00 89 1015.0
20260830231517 64 207 4.0 5.0 0.07 0.20 0.09 55 1089.7
20260830231016 57 0.0 0.0 0.00 0.00 0.00 89 1015.1
20260830230517 63 211 4.0 5.0 0.07 0.20 0.08 55 1090.5
20260830230016 57 0.0 0.0 0.00 0.00 0.00 88 1015.3
20260830225517 62 215 4.0 5.0 0.07 0.20 0.07 56 1091.3
20260830225016 58 0.0 0.0 0.00 0.00 0.00 88 1015.2
20260830224517 62 219 4.0 5.0 0.05 0.20 0.05 56 1092.0
20260830224016 58 0.0 0.0 0.00 0.00 0.00 88 1015.2
20260830223517 61 222 4.0 5.0 0.04 0.20 0.04 57 1092.8
20260830223016 58 0.0 0.0 0.00 0.00 0.00 87 1015.3
20260830222517 60 226 4.0 4.0 0.03 0.20 0.03 58 1093.5
20260830222016 58 0.0 0.0 0.00 0.00 0.00 86 1015.3
20260830221517 59 230 4.0 4.0 0.02 0.20 0.02 58 1094.3
20260830221136 59 0.0 0.0 0.00 0.00 0.00 86 1015.3
20260830220517 59 234 4.0 4.0 0.01 0.20 0.01 59 1095.0
20260830220016 59 0.0 0.0 0.00 0.00 0.00 85 1015.2
20260830215517 58 238 3.0 4.0 0.00 0.20 0.20 60 1095.8
20260830215019 60 0.0 0.0 0.00 0.00 0.00 84 1015.2
20260830214517 57 241 3.0 4.0 0.00 0.20 0.20 60 1096.5
20260830214037 61 0.0 0.0 0.00 0.00 0.00 83 1015.2
20260830213517 56 245 3.0 4.0 0.00 0.20 0.20 61 1097.2
20260830213017 61 0.0 0.0 0.00 0.00 0.00 83 1015.3
20260830212518 55 249 3.0 4.0 0.00 0.20 0.20 61 1098.0
20260830212017 62 0.0 0.0 0.00 0.00 0.00 82 1015.3
20260830211517 54 252 3.0 4.0 0.00 0.20 0.20 62 1098.7
20260830211017 62 180 1.0 2.0 0.00 0.00 0.00 82 1015.4
20260830210517 54 256 3.0 4.0 0.00 0.20 0.20 63 1099.4
20260830210017 63 0.0 1.0 0.00 0.00 0.00 81 1015.4
20260830205537 53 259 3.0 3.0 0.00 0.20 0.20 63 1100.1
20260830205017 64 0.0 0.0 0.00 0.00 0.00 80 1015.3
20260830204517 52 263 3.0 3.0 0.00 0.20 0.20 64 1100.8
20260830204017 64 180 1.0 3.0 0.00 0.00 0.00 80 1015.2
20260830203537 51 266 3.0 3.0 0.00 0.20 0.20 64 1101.5
20260830203037 64 180 2.0 3.0 0.00 0.00 0.00 79 1015.3
20260830202517 50 270 3.0 3.0 0.00 0.20 0.20 65 1102.1
20260830202057 64 180 2.0 4.0 0.00 0.00 0.00 79 1015.3
20260830201517 49 273 2.0 3.0 0.00 0.20 0.20 66 1102.8
20260830201017 65 180 2.0 4.0 0.00 0.00 0.00 79 1015.5
20260830200517 48 276 2.0 3.0 0.00 0.20 0.20 66 1103.5
20260830200017 65 180 2.0 3.0 0.00 0.00 0.00 78 1015.6
20260830195517 47 280 2.0 3.0 0.00 0.20 0.20 67 1104.1
20260830195017 65 180 2.0 2.0 0.00 0.00 0.00 78 1015.5
20260830194517 47 283 2.0 3.0 0.00 0.20 0.20 67 1104.8
20260830194017 66 180 2.0 3.0 0.00 0.00 0.00 77 1015.5
20260830193517 46 286 2.0 2.0 0.00 0.20 0.20 68 1105.4
20260830193016 66 180 1.0 2.0 0.00 0.00 0.00 76 1015.3
20260830192517 45 289 2.0 2.0 0.00 0.20 0.20 68 1106.0
20260830192017 67 180 1.0 3.0 0.00 0.00 0.00 76 1015.4
20260830191517 44 292 2.0 2.0 0.00 0.20 0.20 69 1106.6
20260830191017 67 180 2.0 4.0 0.00 0.00 0.00 75 1015.4
20260830190517 43 295 2.0 2.0 0.00 0.20 0.20 69 1107.2
20260830190017 67 180 2.0 2.0 0.00 0.00 0.00 74 1015.3
20260830185537 42 298 2.0 2.0 0.00 0.20 0.20 70 1107.8
20260830185016 68 180 1.0 2.0 0.00 0.00 0.00 73 1015.3
20260830184517 42 301 2.0 2.0 0.00 0.20 0.20 70 1108.4
20260830184017 68 180 1.0 3.0 0.00 0.00 0.00 73 1015.1
20260830183517 41 304 2.0 2.0 0.00 0.20 0.20 71 1109.0
20260830183036 69 180 1.0 2.0 0.00 0.00 0.00 72 1015.1
20260830182517 40 307 1.0 2.0 0.00 0.20 0.20 71 1109.5
20260830182016 69 180 2.0 3.0 0.00 0.00 0.00 71 1014.9
20260830181517 39 310 1.0 2.0 0.00 0.20 0.20 72 1110.1
20260830181016 70 180 2.0 3.0 0.00 0.00 0.00 69 1014.9
20260830180517 39 312 1.0 2.0 0.00 0.20 0.20 72 1110.6
20260830180016 70 180 2.0 4.0 0.00 0.00 0.00 69 1014.8
20260830175517 38 315 1.0 2.0 0.00 0.20 0.20 73 1111.1
20260830175036 71 180 2.0 4.0 0.00 0.00 0.00 68 1014.7
20260830174517 37 318 1.0 1.0 0.00 0.20 0.20 73 1111.6
20260830174016 72 180 2.0 3.0 0.00 0.00 0.00 66 1014.7
20260830173517 37 320 1.0 1.0 0.00 0.20 0.20 73 1112.1
20260830173037 72 180 2.0 5.0 0.00 0.00 0.00 65 1014.7
20260830172517 36 323 1.0 1.0 0.00 0.20 0.20 74 1112.6
20260830172017 73 225 3.0 5.0 0.00 0.00 0.00 64 1014.6
20260830171517 35 325 1.0 1.0 0.00 0.20 0.20 74 1113.1
20260830171016 73 225 5.0 7.0 0.00 0.00 0.00 63 1014.6
20260830170517 35 327 1.0 1.0 0.00 0.20 0.20 75 1113.5
20260830170016 73 225 5.0 11.0 0.00 0.00 0.00 63 1014.6
20260830165517 34 329 1.0 1.0 0.00 0.20 0.20 75 1114.0
20260830165016 74 225 3.0 6.0 0.00 0.00 0.00 63 1014.5
20260830164537 34 332 1.0 1.0 0.00 0.20 0.20 75 1114.4
20260830164017 74 203 5.0 9.0 0.00 0.00 0.00 62 1014.7
20260830163517 33 334 1.0 1.0 0.00 0.20 0.20 76 1114.8
20260830163016 74 225 5.0 10.0 0.00 0.00 0.00 62 1014.6
20260830162517 33 336 1.0 1.0 0.00 0.20 0.20 76 1115.2
20260830162057 74 225 5.0 9.0 0.00 0.00 0.00 61 1014.8
20260830161517 32 338 1.0 1.0 0.00 0.20 0.20 76 1115.6
20260830161016 74 225 6.0 9.0 0.00 0.00 0.00 61 1014.8
20260830160517 32 339 1.0 1.0 0.00 0.20 0.20 77 1115.9
20260830160016 75 203 7.0 12.0 0.00 0.00 0.00 60 1014.7
20260830155517 32 341 1.0 1.0 0.00 0.20 0.20 77 1116.3
20260830155016 75 203 6.0 11.0 0.00 0.00 0.00 58 1014.7
20260830154517 31 343 0.0 1.0 0.00 0.20 0.20 77 1116.6
20260830154016 76 203 5.0 10.0 0.00 0.00 0.00 58 1014.9
20260830153517 31 345 0.0 1.0 0.00 0.20 0.20 77 1116.9
20260830153016 76 225 8.0 14.0 0.00 0.00 0.00 58 1015.0
20260830152517 31 346 0.0 0.0 0.00 0.20 0.20 78 1117.3
20260830152016 76 225 6.0 13.0 0.00 0.00 0.00 58 1014.9
20260830151537 30 348 0.0 0.0 0.00 0.20 0.20 78 1117.5
20260830151016 76 203 8.0 12.0 0.00 0.00 0.00 57 1014.8
20260830150537 30 349 0.0 0.0 0.00 0.20 0.20 78 1117.8
20260830150016 76 203 7.0 14.0 0.00 0.00 0.00 57 1014.9
20260830145517 30 350 0.0 0.0 0.00 0.20 0.20 78 1118.1
20260830145016 76 203 6.0 11.0 0.00 0.00 0.00 56 1014.9
20260830144517 30 352 0.0 0.0 0.00 0.20 0.20 79 1118.3
20260830144036 77 203 7.0 15.0 0.00 0.00 0.00 55 1015.0
20260830143537 30 353 0.0 0.0 0.00 0.20 0.20 79 1118.5
20260830143016 77 225 7.0 15.0 0.00 0.00 0.00 56 1015.0
20260830142537 30 354 0.0 0.0 0.00 0.20 0.20 79 1118.8
20260830142036 77 203 9.0 17.0 0.00 0.00 0.00 54 1015.0
20260830141517 30 355 0.0 0.0 0.00 0.20 0.20 79 1119.0
20260830141016 78 203 9.0 15.0 0.00 0.00 0.00 53 1015.0
20260830140517 30 356 0.0 0.0 0.00 0.20 0.20 79 1119.1
20260830140016 77 203 8.0 14.0 0.00 0.00 0.00 54 1014.9
20260830135517 30 356 0.0 0.0 0.00 0.20 0.20 79 1119.3
20260830135016 77 225 8.0 13.0 0.00 0.00 0.00 52 1014.9
20260830134517 30 357 0.0 0.0 0.00 0.20 0.20 80 1119.4
20260830134036 77 225 8.0 15.0 0.00 0.00 0.00 53 1015.1
20260830133517 30 358 0.0 0.0 0.00 0.20 0.20 80 1119.6
20260830133016 78 225 6.0 11.0 0.00 0.00 0.00 54 1015.2
20260830132517 31 358 0.0 0.0 0.00 0.20 0.20 80 1119.7
20260830132016 77 248 7.0 14.0 0.00 0.00 0.00 53 1015.2
20260830131537 31 359 0.0 0.0 0.00 0.20 0.20 80 1119.8
20260830131036 76 225 9.0 18.0 0.00 0.00 0.00 53 1015.3
20260830130537 31 359 0.0 0.0 0.00 0.20 0.20 80 1119.8
20260830130036 77 225 8.0 16.0 0.00 0.00 0.00 53 1015.3
20260830125517 31 360 0.0 0.0 0.00 0.20 0.20 80 1119.9
20260830125016 76 248 9.0 16.0 0.00 0.00 0.00 53 1015.4
20260830124517 32 360 0.0 0.0 0.00 0.20 0.20 80 1120.0
20260830124016 77 203 10.0 16.0 0.00 0.00 0.00 54 1015.4
20260830123518 32 360 0.0 0.0 0.00 0.20 0.20 80 1120.0
20260830123016 74 203 6.0 11.0 0.00 0.00 0.00 58 1015.3
20260830122517 33 360 0.0 0.0 0.00 0.20 0.20 80 1120.0
20260830122016 75 225 8.0 15.0 0.00 0.00 0.00 55 1015.5
20260830121515 56 320 1.0 1.0 0.00 0.20 0.20 73 1112.0
20260830121016 74 225 6.0 11.0 0.00 0.00 0.00 58 1015.5
20260830120515 57 317 1.0 1.0 0.00 0.20 0.20 73 1111.5
20260830120036 75 203 8.0 13.0 0.00 0.00 0.00 56 1015.4
20260830115516 58 315 1.0 2.0 0.00 0.20 0.20 72 1111.0
20260830115015 75 225 8.0 12.0 0.00 0.00 0.00 57 1015.5
20260830114515 59 312 1.0 2.0 0.00 0.20 0.20 72 1110.5
20260830114038 73 225 7.0 12.0 0.00 0.00 0.00 60 1015.6
20260830113515 59 309 1.0 2.0 0.00 0.20 0.20 72 1110.0
20260830113017 73 270 9.0 14.0 0.00 0.00 0.00 59 1015.5
20260830112515 60 307 1.0 2.0 0.00 0.20 0.20 71 1109.4
20260830112018 72 248 9.0 14.0 0.00 0.00 0.00 60 1015.5
20260830111515 61 304 2.0 2.0 0.00 0.20 0.20 71 1108.9
20260830111018 73 248 8.0 16.0 0.00 0.00 0.00 59 1015.4
20260830110515 62 301 2.0 2.0 0.00 0.20 0.20 70 1108.3
20260830110017 75 203 8.0 15.0 0.00 0.00 0.00 56 1015.7
20260830105515 62 298 2.0 2.0 0.00 0.20 0.20 70 1107.7
20260830105038 73 270 10.0 17.0 0.00 0.00 0.00 60 1015.6
20260830104515 63 295 2.0 2.0 0.00 0.20 0.20 69 1107.1
20260830104037 73 225 7.0 11.0 0.00 0.00 0.00 61 1015.7
20260830103535 64 292 2.0 2.0 0.00 0.20 0.20 69 1106.5
20260830103017 73 225 8.0 14.0 0.00 0.00 0.00 59 1015.7
20260830102515 64 289 2.0 2.0 0.00 0.20 0.20 68 1105.9
20260830102016 73 225 9.0 16.0 0.00 0.00 0.00 59 1015.7